Muscle Shoals, AL

9:28 AM CDT on August 20, 2017 (GMT -0500)
Northwest Alabama Regional

Weather History for KMSL - March, 2014

Change the Weather History Date:

Friday, March 28, 2014

  Actual Average Record
Temperature  
Mean Temperature 64 °F 56 °F  
Max Temperature 71 °F 68 °F 87 °F (1910)
Min Temperature 56 °F 45 °F 25 °F (1913)
Degree Days  
Heating Degree Days 1 9  
Month to date heating degree days 412 351  
Since 1 July heating degree days 3183 2886  
Cooling Degree Days 0 1  
Month to date cooling degree days 0 5  
Year to date cooling degree days 0 6  
Growing Degree Days 15 (Base 50)    
Moisture  
Dew Point 55 °F    
Average Humidity 72    
Maximum Humidity 86    
Minimum Humidity 57    
Precipitation  
Precipitation 0.00 in 0.15 in 3.88 in (1951)
Month to date precipitation 2.00 4.30  
Year to date precipitation 7.69 13.57  
Snow  
Snow 0.00 in - - ()
Month to date snowfall T  
Since 1 July snowfall 1.4  
Snow Depth 0.00 in    
Sea Level Pressure  
Sea Level Pressure 29.97 in    
Wind  
Wind Speed 6 mph (SSE)    
Max Wind Speed 16 mph    
Max Gust Speed 23 mph    
Visibility 10 miles    
Events      
T = Trace of Precipitation, MM = Missing Value Source: NWS Daily Summary

Daily Weather History Graph

Daily Weather History Graph

Search for Another Location

Airport or City:

Trip Planner

Search our weather history database for the weather conditions in past years. The results will help you decide how hot, cold, wet, or windy it might be!

Date:

Astronomy

Mar. 28, 2014 Rise Set
Actual Time 6:42 AM CDT 7:08 PM CDT
Civil Twilight 6:17 AM CDT 7:33 PM CDT
Nautical Twilight 5:48 AM CDT 8:03 PM CDT
Astronomical Twilight 5:17 AM CDT 8:33 PM CDT
Moon 5:08 AM CDT (3/28) 5:08 PM CDT (3/28)
Length of Visible Light 13h 16m
Length of Day
12h 25m
Waning Crescent, 6% of the Moon is Illuminated
Mar 28
Waning Crescent
Mar 30
New
Apr 7
First Quarter
Apr 15
Full
Apr 22
Last Quarter

Hourly Weather History & Observations

Time (CDT) Temp. Dew Point Humidity Pressure Visibility Wind Dir Wind Speed Gust Speed Precip Events Conditions
12:45 AM 60.8 °F 53.6 °F 77% 29.97 in 10.0 mi SSE 12.7 mph - N/A   Overcast
12:53 AM 60.1 °F 53.1 °F 78% 29.95 in 10.0 mi South 11.5 mph 19.6 mph N/A   Overcast
1:53 AM 61.0 °F 54.0 °F 78% 29.93 in 10.0 mi Variable 5.8 mph - N/A   Overcast
2:53 AM 61.0 °F 55.0 °F 81% 29.94 in 10.0 mi SSW 8.1 mph - N/A   Overcast
3:27 AM 60.8 °F 53.6 °F 77% 29.93 in 10.0 mi South 10.4 mph - N/A   Mostly Cloudy
3:53 AM 61.0 °F 54.0 °F 78% 29.92 in 10.0 mi South 10.4 mph - N/A   Mostly Cloudy
4:00 AM 60.8 °F 53.6 °F 77% 29.94 in 10.0 mi South 12.7 mph - N/A   Mostly Cloudy
4:42 AM 60.8 °F 55.4 °F 82% 29.93 in 10.0 mi South 10.4 mph 17.3 mph N/A   Overcast
4:53 AM 61.0 °F 55.0 °F 81% 29.92 in 10.0 mi South 9.2 mph - N/A   Overcast
5:53 AM 61.0 °F 55.0 °F 81% 29.94 in 10.0 mi SSE 3.5 mph - N/A   Overcast
6:20 AM 59.0 °F 53.6 °F 82% 29.96 in 10.0 mi SSE 4.6 mph - N/A   Scattered Clouds
6:53 AM 59.0 °F 54.0 °F 83% 29.98 in 10.0 mi East 3.5 mph - N/A   Overcast
7:53 AM 60.1 °F 55.0 °F 83% 29.99 in 10.0 mi SSE 4.6 mph - N/A   Mostly Cloudy
8:44 AM 60.8 °F 55.4 °F 82% 30.01 in 10.0 mi SE 5.8 mph - N/A   Overcast
8:51 AM 60.8 °F 55.4 °F 82% 30.01 in 10.0 mi SE 6.9 mph - N/A   Overcast
8:53 AM 60.1 °F 55.0 °F 83% 30.00 in 10.0 mi SE 8.1 mph - N/A   Overcast
9:37 AM 60.8 °F 55.4 °F 82% 30.01 in 10.0 mi SE 4.6 mph - N/A   Mostly Cloudy
9:53 AM 62.1 °F 55.0 °F 78% 30.01 in 10.0 mi SE 6.9 mph - N/A   Overcast
10:53 AM 63.0 °F 55.9 °F 78% 30.01 in 10.0 mi SE 6.9 mph - N/A   Overcast
11:53 AM 64.0 °F 55.9 °F 75% 30.02 in 10.0 mi SE 8.1 mph - N/A   Overcast
12:53 PM 64.9 °F 57.0 °F 75% 30.00 in 10.0 mi SE 6.9 mph - N/A   Overcast
1:53 PM 68.0 °F 57.0 °F 68% 29.99 in 10.0 mi SSE 9.2 mph - N/A   Overcast
2:07 PM 68.0 °F 57.2 °F 68% 29.99 in 10.0 mi SSE 9.2 mph - N/A   Overcast
2:53 PM 68.0 °F 55.9 °F 65% 29.97 in 10.0 mi South 6.9 mph - N/A   Overcast
3:23 PM 69.8 °F 55.4 °F 60% 29.98 in 10.0 mi South 9.2 mph - N/A   Overcast
3:53 PM 70.0 °F 55.9 °F 61% 29.96 in 10.0 mi SSE 8.1 mph - N/A   Mostly Cloudy
4:53 PM 71.1 °F 55.0 °F 57% 29.94 in 10.0 mi SE 6.9 mph - N/A   Clear
5:53 PM 69.1 °F 55.0 °F 61% 29.94 in 10.0 mi SSE 5.8 mph - N/A   Mostly Cloudy
6:53 PM 66.0 °F 55.0 °F 68% 29.93 in 10.0 mi ESE 8.1 mph - N/A   Mostly Cloudy
7:53 PM 64.9 °F 54.0 °F 68% 29.95 in 10.0 mi SSE 5.8 mph - N/A   Mostly Cloudy
8:53 PM 62.1 °F 53.1 °F 72% 29.98 in 10.0 mi Calm Calm - N/A   Clear
9:53 PM 61.0 °F 54.0 °F 78% 29.97 in 10.0 mi East 4.6 mph - N/A   Clear
10:53 PM 59.0 °F 53.1 °F 81% 29.98 in 10.0 mi ESE 3.5 mph - N/A   Clear
11:53 PM 57.9 °F 53.1 °F 84% 29.94 in 10.0 mi East 4.6 mph - N/A   Clear